Weather in Sainte-Maxime

France     43°18′29″N   6°38′22″E
temp.,
°C
wind,
m/s
gust,
m/s
humid.,
%
clouds,
%
prec.,
mm/h
press.,
hPa
HPBL,
m
18 april, sun
sun1823:00+12nw4554100 0.0 1014311
02:00+11wnw556652 0.0 1015186
05:00+10nw5572100 0.0 1014163
08:00+10nw447127 0.0 1015173
11:00+12ne11575 0.0 1016276
14:00+13ssw445935 0.0 1015544
17:00+13ssw556049 0.2 1015500
20:00+13se336022 0.3 1015450
19 april, mon
mon1923:00+12ene33675 0.0 1016498
02:00+12ne336951 0.0 1015470
05:00+11n33751 0.0 1015352
08:00+10nnw33722 0.0 1016207
11:00+12nne11612 0.0 1016234
14:00+13sse43631 0.0 1016376
17:00+14ssw66628 0.0 1015628
20:00+13sw78605 0.0 1014432
20 april, tue
tue2023:00+13wsw67600 0.0 1015383
02:00+13w23640 0.0 1014244
05:00+12n33660 0.0 1014236
08:00+12n45700 0.0 1014459
11:00+13ne44670 0.0 1015684
14:00+13e33651 0.0 1015433
17:00+13s33641 0.0 1014505
20:00+14sw45633 0.0 1015401
21 april, wed
wed2123:00+14wnw456691 0.0 1016291
02:00+13nnw226520 0.0 1017177
05:00+12n337120 0.0 1017211
08:00+12nne447694 0.1 1017365
11:00+13ene447523 0.5 1018381
14:00+14e437211 0.7 1019516
17:00+14ssw11706 0.0 1018436
20:00+14ssw01707 0.0 1018241
22 april, thu
thu2223:00+14n11711 0.0 1020213
02:00+13nne34760 0.0 1020372
05:00+13nne45782 0.0 1020469
08:00+13nne4579100 0.0 1020470
11:00+13ene5577100 0.0 1021564
14:00+14e3376100 0.0 1021393
17:00+14ese2273100 0.0 1020282
20:00+14se1171100 0.0 1019193